sat.trackr.live / text

‹ back to catalog

STARLINK-30866

NORAD 58237 · 2023-171H

PAYLOAD ACTIVE UNKNOWN

§ Identity

Operator
Country
US
Launch date
2023-11-08
Launch site
AFETR
Launch vehicle
Mass (kg)
RCS (m²)

Purposes: comms

External: N2YO · Heavens-Above · Gunter

§ Orbital elements

Epoch: 2026-09-20T11:08:13.194240Z

Period
94.26 min
Inclination
43.0029°
Eccentricity
0.0001771
Mean motion
15.27663378 rev/d
Perigee alt
481.6 km
Apogee alt
484.0 km
Semi-major
6,860.9 km
B*
-8.7374e-4
RAAN
265.1707°
Arg perigee
256.1300°
Mean anomaly
103.9355°
Rev number
15,952

§ Raw data

STARLINK-308661 58237U 23171H   26263.46404160 -.00024289  00000+0 -87374-3 0  99912 58237  43.0029 265.1707 0001771 256.1300 103.9355 15.27663378159522

JSON: /api/v1/satellites/58237 · /tle

For live sub-satellite position, see the globe view (requires WebGL).

§ Visibility from observer

Set your observer location to see the next 7 days of passes ≥ 10°. The values pass through the URL so the page stays shareable.

No JS? Fill the form by hand. The geolocation button needs JavaScript.